When you browse on this site, cookies collect data to enhance your experience and personalize the content and advertising you see.
Visit our Privacy Policy to learn more. By continuing to use the site, you agree to this use of cookies and data.
  • en France
  • Liste des pays
  • À 7 jours
  • Température de l'eau
  • Carte satellitaire
  • Carte météo
  • Widgets météo
  • user-avatar
    Se connecter

    Météo par heure à Kapan

    Ce jour, 23 Juillet, Mardi

    Heure Température Précipitation Vent Pression Humidité
    00:00 +24°C° 0 mm 1 m/s 681 mmHg 82%
    01:00 +23°C° 0 mm 1 m/s 681 mmHg 83%
    02:00 +23°C° 0 mm 1 m/s 681 mmHg 84%
    03:00 +23°C° 0 mm 1 m/s 681 mmHg 84%
    04:00 +23°C° 0 mm 1 m/s 681 mmHg 82%
    05:00 +24°C° 0 mm 1 m/s 681 mmHg 81%
    06:00 +24°C° 0 mm 1 m/s 682 mmHg 79%
    07:00 +26°C° 0 mm 2 m/s 682 mmHg 71%
    08:00 +27°C° 0 mm 2 m/s 682 mmHg 64%
    09:00 +28°C° 0 mm 3 m/s 682 mmHg 57%
    10:00 +30°C° 0 mm 3 m/s 682 mmHg 52%
    11:00 +31°C° 0 mm 3 m/s 682 mmHg 47%
    12:00 +33°C° 0 mm 3 m/s 682 mmHg 42%
    13:00 +34°C° 0 mm 4 m/s 681 mmHg 40%
    14:00 +34°C° 0 mm 4 m/s 681 mmHg 38%
    15:00 +35°C° 0 mm 4 m/s 680 mmHg 36%
    16:00 +34°C° 0 mm 4 m/s 680 mmHg 40%
    17:00 +32°C° 0 mm 4 m/s 680 mmHg 43%
    18:00 +30°C° 0 mm 4 m/s 680 mmHg 47%
    19:00 +28°C° 0 mm 3 m/s 680 mmHg 51%
    20:00 +27°C° 0 mm 2 m/s 680 mmHg 56%
    21:00 +25°C° 0 mm 2 m/s 679 mmHg 61%
    22:00 +24°C° 0 mm 1 m/s 680 mmHg 62%
    23:00 +24°C° 0 mm 1 m/s 680 mmHg 62%

    Demain, 24 Juillet, Mercredi

    Heure Température Précipitation Vent Pression Humidité
    00:00 +24°C° 0 mm 1 m/s 680 mmHg 63%
    01:00 +23°C° 0 mm 1 m/s 680 mmHg 64%
    02:00 +23°C° 0 mm 1 m/s 679 mmHg 65%
    03:00 +21°C° 0 mm 0 m/s 679 mmHg 66%
    04:00 +21°C° 0 mm 0 m/s 680 mmHg 65%
    05:00 +22°C° 0 mm 0 m/s 680 mmHg 63%
    06:00 +22°C° 0 mm 0 m/s 680 mmHg 62%
    07:00 +26°C° 0 mm 1 m/s 680 mmHg 57%
    08:00 +28°C° 0 mm 2 m/s 681 mmHg 53%
    09:00 +29°C° 0 mm 2 m/s 681 mmHg 48%
    10:00 +31°C° 0 mm 3 m/s 681 mmHg 44%
    11:00 +33°C° 0 mm 3 m/s 681 mmHg 41%
    12:00 +34°C° 0 mm 3 m/s 681 mmHg 37%
    13:00 +35°C° 0 mm 3 m/s 680 mmHg 36%
    14:00 +35°C° 0 mm 3 m/s 680 mmHg 35%
    15:00 +35°C° 0 mm 4 m/s 679 mmHg 34%
    16:00 +34°C° 0 mm 3 m/s 679 mmHg 37%
    17:00 +33°C° 0 mm 3 m/s 679 mmHg 40%
    18:00 +31°C° 0 mm 3 m/s 679 mmHg 43%
    19:00 +30°C° 0 mm 2 m/s 679 mmHg 47%
    20:00 +28°C° 0 mm 2 m/s 680 mmHg 51%
    21:00 +26°C° 0 mm 1 m/s 680 mmHg 54%
    22:00 +25°C° 0 mm 1 m/s 680 mmHg 53%
    23:00 +25°C° 0 mm 1 m/s 680 mmHg 53%

    Après-demain, 25 Juillet, Jeudi

    Heure Température Précipitation Vent Pression Humidité
    00:00 +24°C° 0 mm 1 m/s 680 mmHg 52%
    01:00 +24°C° 0 mm 1 m/s 680 mmHg 49%
    02:00 +24°C° 0 mm 1 m/s 680 mmHg 47%
    03:00 +24°C° 0 mm 2 m/s 680 mmHg 44%
    04:00 +25°C° 0 mm 1 m/s 680 mmHg 43%
    05:00 +25°C° 0 mm 1 m/s 681 mmHg 42%
    06:00 +26°C° 0 mm 1 m/s 681 mmHg 41%
    07:00 +28°C° 0 mm 1 m/s 682 mmHg 39%
    08:00 +29°C° 0 mm 2 m/s 682 mmHg 37%
    09:00 +31°C° 0 mm 2 m/s 682 mmHg 35%
    10:00 +34°C° 0 mm 2 m/s 682 mmHg 32%
    11:00 +35°C° 0 mm 2 m/s 682 mmHg 28%
    12:00 +37°C° 0 mm 3 m/s 682 mmHg 25%
    13:00 +37°C° 0 mm 3 m/s 682 mmHg 22%
    14:00 +38°C° 0 mm 3 m/s 682 mmHg 20%
    15:00 +38°C° 0 mm 3 m/s 681 mmHg 18%
    16:00 +37°C° 0 mm 3 m/s 681 mmHg 24%
    17:00 +36°C° 0 mm 3 m/s 681 mmHg 30%
    18:00 +34°C° 0 mm 3 m/s 680 mmHg 35%
    19:00 +31°C° 0 mm 3 m/s 680 mmHg 43%
    20:00 +29°C° 0 mm 2 m/s 681 mmHg 51%
    21:00 +27°C° 0 mm 1 m/s 681 mmHg 58%
    22:00 +26°C° 0 mm 1 m/s 681 mmHg 59%
    23:00 +26°C° 0 mm 1 m/s 681 mmHg 60%

    26 Juillet, Vendredi

    Heure Température Précipitation Vent Pression Humidité
    00:00 +26°C° 0 mm 1 m/s 681 mmHg 61%
    01:00 +25°C° 0 mm 1 m/s 681 mmHg 63%
    02:00 +24°C° 0 mm 1 m/s 681 mmHg 65%
    03:00 +23°C° 0 mm 1 m/s 681 mmHg 68%
    04:00 +24°C° 0 mm 1 m/s 681 mmHg 67%
    05:00 +24°C° 0 mm 1 m/s 682 mmHg 67%
    06:00 +24°C° 0 mm 1 m/s 682 mmHg 67%
    07:00 +25°C° 0 mm 1 m/s 682 mmHg 62%
    08:00 +27°C° 0 mm 2 m/s 682 mmHg 57%
    09:00 +28°C° 0 mm 3 m/s 683 mmHg 51%
    10:00 +29°C° 0 mm 3 m/s 682 mmHg 48%
    11:00 +30°C° 0 mm 3 m/s 682 mmHg 45%
    12:00 +32°C° 0 mm 4 m/s 682 mmHg 42%
    13:00 +33°C° 0 mm 4 m/s 681 mmHg 40%
    14:00 +33°C° 0 mm 4 m/s 681 mmHg 39%
    15:00 +34°C° 0 mm 4 m/s 681 mmHg 37%
    16:00 +32°C° 0 mm 4 m/s 681 mmHg 42%
    17:00 +30°C° 0 mm 4 m/s 680 mmHg 46%
    18:00 +28°C° 0 mm 4 m/s 680 mmHg 51%
    19:00 +27°C° 0 mm 3 m/s 680 mmHg 58%
    20:00 +25°C° 0 mm 2 m/s 681 mmHg 66%
    21:00 +23°C° 0 mm 2 m/s 681 mmHg 73%
    22:00 +22°C° 0 mm 1 m/s 681 mmHg 75%
    23:00 +22°C° 0 mm 1 m/s 681 mmHg 77%

    27 Juillet, Samedi

    Heure Température Précipitation Vent Pression Humidité
    00:00 +22°C° 0 mm 1 m/s 681 mmHg 78%
    01:00 +21°C° 0 mm 1 m/s 681 mmHg 80%
    02:00 +21°C° 0 mm 1 m/s 681 mmHg 81%
    03:00 +21°C° 0 mm 1 m/s 681 mmHg 83%
    04:00 +21°C° 0 mm 1 m/s 681 mmHg 81%
    05:00 +21°C° 0 mm 1 m/s 681 mmHg 80%
    06:00 +22°C° 0 mm 1 m/s 681 mmHg 78%
    07:00 +23°C° 0 mm 2 m/s 681 mmHg 72%
    08:00 +24°C° 0 mm 2 m/s 681 mmHg 66%
    09:00 +26°C° 0 mm 3 m/s 681 mmHg 60%
    10:00 +26°C° 0 mm 3 m/s 681 mmHg 56%
    11:00 +27°C° 0 mm 3 m/s 681 mmHg 52%
    12:00 +28°C° 0 mm 3 m/s 681 mmHg 48%
    13:00 +29°C° 0 mm 3 m/s 680 mmHg 45%
    14:00 +30°C° 0 mm 3 m/s 680 mmHg 41%
    15:00 +32°C° 0 mm 4 m/s 680 mmHg 37%
    16:00 +32°C° 0 mm 4 m/s 679 mmHg 40%
    17:00 +30°C° 0 mm 4 m/s 679 mmHg 43%
    18:00 +29°C° 0 mm 4 m/s 679 mmHg 45%
    19:00 +27°C° 0 mm 3 m/s 679 mmHg 53%
    20:00 +25°C° 0 mm 2 m/s 679 mmHg 60%
    21:00 +22°C° 0 mm 1 m/s 679 mmHg 67%
    22:00 +22°C° 0 mm 1 m/s 679 mmHg 68%
    23:00 +21°C° 0 mm 2 m/s 679 mmHg 70%

    28 Juillet, Dimanche

    Heure Température Précipitation Vent Pression Humidité
    00:00 +20°C° 0 mm 2 m/s 679 mmHg 71%
    01:00 +20°C° 0 mm 2 m/s 678 mmHg 72%
    02:00 +20°C° 0 mm 2 m/s 678 mmHg 72%
    03:00 +21°C° 0 mm 1 m/s 678 mmHg 73%
    04:00 +21°C° 0 mm 1 m/s 678 mmHg 71%
    05:00 +22°C° 0 mm 1 m/s 679 mmHg 70%
    06:00 +22°C° 0 mm 1 m/s 679 mmHg 68%
    07:00 +24°C° 0 mm 1 m/s 679 mmHg 62%
    08:00 +26°C° 0 mm 2 m/s 679 mmHg 56%
    09:00 +27°C° 0 mm 2 m/s 679 mmHg 51%
    10:00 +28°C° 0 mm 3 m/s 679 mmHg 47%
    11:00 +30°C° 0 mm 3 m/s 679 mmHg 44%
    12:00 +31°C° 0 mm 3 m/s 679 mmHg 40%
    13:00 +31°C° 0.1 mm 3 m/s 678 mmHg 39%
    14:00 +33°C° 0.1 mm 3 m/s 678 mmHg 38%
    15:00 +33°C° 0.1 mm 3 m/s 677 mmHg 37%
    16:00 +31°C° 0 mm 3 m/s 677 mmHg 39%
    17:00 +30°C° 0 mm 3 m/s 677 mmHg 41%
    18:00 +30°C° 0 mm 3 m/s 677 mmHg 44%
    19:00 +28°C° 0 mm 3 m/s 677 mmHg 50%
    20:00 +26°C° 0 mm 2 m/s 677 mmHg 56%
    21:00 +23°C° 0 mm 1 m/s 678 mmHg 61%
    22:00 +23°C° 0 mm 1 m/s 678 mmHg 63%
    23:00 +23°C° 0 mm 2 m/s 678 mmHg 64%
    Voir plus